LUME 1 (43908 NORAD) Tracking and Keplerian Element Data

This shows tracking and keplerian element data for the satellite.

Feedback or suggestion? Click here.




ElementValue
Catalog43908
NameLUME 1
Epoch Orbit21737
Epoch Day325.08894124
Epoch Year2022
RAAN208.0757
Inclination97.1681
Eccentricity0.0014808
Argument of Perigee229.6734
Mean Anonmoly130.3216
Mean Motion15.34007831
Decay Rate0.0001176
L11 43908U 18111AJ 22325.08894124 .00011760 00000+0 35838-3 0 9990
L22 43908 97.1681 208.0757 0014808 229.6734 130.3216 15.34007831217379



Live tracking and technical data element details for LUME 1 (NORAD 43908). LUME 1 can be tracked NOW for your location showing map with azimuth and elevation plus other details from your city location.







IsCatalogInMostPopularTable: catalog: 43908, numindb: 513
Update: records affected: 1



GetName: 43908 LUME 1

Hit Count: updated at: Mon, 28 Nov 2022 03:57:00 GMT